DW4152 Weather Reports


Display with metric or nautical units.
time (UTC)temp
F
wind
direction
speed
MPH
gust
MPH
rain 1hr
in
rain 24hr
in
rain mn
in
humidity
%
barometer
mb
20240521040021 63 34 0.0 0.0 0.00 0.01 0.00 95 1016.0
20240521034521 63 34 0.0 0.0 0.00 0.01 0.01 94 1016.0
20240521033019 63 34 0.0 0.0 0.00 0.01 0.01 94 1016.1
20240521031519 64 34 0.0 0.0 0.00 0.01 0.01 93 1016.1
20240521030019 64 34 0.0 0.0 0.00 0.01 0.01 92 1016.1
20240521024520 65 34 0.0 0.0 0.00 0.01 0.01 92 1016.2
20240521023018 65 34 0.0 0.0 0.00 0.01 0.01 91 1016.2
20240521021529 65 34 0.0 0.0 0.00 0.01 0.01 90 1015.9
20240521020017 66 34 0.0 0.0 0.00 0.01 0.01 88 1015.7
20240521014522 66 34 0.0 0.0 0.00 0.01 0.01 87 1015.5
20240521013018 67 34 0.0 0.0 0.00 0.01 0.01 85 1015.3
20240521011530 67 34 0.0 0.0 0.00 0.01 0.01 85 1015.1
20240521010014 68 34 0.0 0.0 0.00 0.01 0.01 83 1015.1
20240521004519 69 34 0.0 0.0 0.00 0.01 0.01 82 1015.0
20240521003013 70 34 0.0 0.0 0.00 0.01 0.01 79 1015.1
20240521001517 71 34 0.0 0.0 0.00 0.01 0.01 78 1015.0
20240521000013 72 34 0.0 0.0 0.00 0.01 0.01 76 1015.0
20240520234512 73 34 0.0 0.0 0.00 0.01 0.01 76 1014.9
20240520233010 74 31 0.0 0.0 0.00 0.01 0.01 74 1014.7
20240520231516 74 29 0.0 0.0 0.00 0.01 0.01 71 1014.5
20240520230010 75 19 0.0 0.0 0.00 0.01 0.01 70 1014.3
20240520224510 75 24 0.0 0.0 0.00 0.01 0.01 69 1014.3
20240520223012 77 24 0.0 0.0 0.00 0.01 0.01 65 1014.2
20240520221506 77 32 0.0 1.0 0.00 0.01 0.01 68 1014.3
20240520220004 77 29 0.0 1.0 0.00 0.01 0.01 63 1014.4
20240520214504 77 341 0.0 1.0 0.00 0.01 0.01 65 1014.6
20240520213002 77 290 0.0 0.0 0.00 0.01 0.01 69 1014.7
20240520211502 78 290 0.0 2.0 0.00 0.01 0.01 64 1014.8
20240520210001 78 46 0.0 2.0 0.00 0.01 0.01 62 1014.7
20240520204558 78 53 0.0 1.0 0.00 0.01 0.01 61 1014.9
20240520203058 78 355 0.0 3.0 0.00 0.01 0.01 59 1015.0
20240520201556 78 46 0.0 1.0 0.00 0.01 0.01 62 1015.1
20240520200056 77 317 0.0 2.0 0.00 0.01 0.01 63 1015.2
20240520194606 78 251 0.0 1.0 0.00 0.01 0.01 61 1015.2
20240520193054 77 331 0.0 2.0 0.00 0.01 0.01 62 1015.2
20240520191553 78 264 0.0 0.0 0.00 0.01 0.01 60 1015.2
20240520190101 80 355 0.0 3.0 0.00 0.01 0.01 61 1015.3
20240520184551 78 260 0.0 1.0 0.00 0.01 0.01 69 1015.5
20240520183049 78 248 0.0 0.0 0.00 0.01 0.01 65 1015.5
20240520181551 77 80 0.0 0.0 0.00 0.01 0.01 65 1015.5
20240520180047 77 280 0.0 0.0 0.00 0.01 0.01 69 1015.6
20240520174545 77 117 0.0 0.0 0.00 0.01 0.01 61 1015.5
20240520173044 77 165 0.0 3.0 0.00 0.01 0.01 66 1015.6
20240520171543 78 149 0.0 5.0 0.00 0.01 0.01 67 1015.8
20240520170043 77 153 0.0 4.0 0.00 0.01 0.01 61 1016.1
20240520164558 78 60 0.0 1.0 0.00 0.01 0.01 69 1016.3
20240520163041 76 44 0.0 3.0 0.00 0.01 0.01 69 1016.4
20240520161538 75 54 0.0 2.0 0.00 0.01 0.01 69 1016.6
20240520160040 74 77 0.0 2.0 0.00 0.01 0.01 69 1016.7
20240520154531 74 63 0.0 2.0 0.00 0.01 0.01 71 1017.0
20240520153028 75 15 0.0 4.0 0.00 0.01 0.01 71 1016.9
20240520151526 74 67 0.0 6.0 0.00 0.01 0.01 70 1016.9
20240520150036 74 15 0.0 3.0 0.00 0.01 0.01 73 1017.0
20240520144530 73 56 0.0 1.0 0.00 0.01 0.01 77 1016.8
20240520143020 72 180 0.0 2.0 0.00 0.01 0.01 80 1016.8
20240520141514 71 74 0.0 1.0 0.01 0.01 0.01 80 1016.9
20240520140011 70 355 0.0 2.0 0.01 0.01 0.01 82 1017.0
20240520134507 69 19 0.0 5.0 0.01 0.01 0.01 85 1016.9
20240520133002 66 61 0.0 0.0 0.01 0.01 0.01 91 1016.9
20240520131558 64 61 0.0 1.0 0.00 0.00 0.00 96 1017.2
20240520130104 63 101 0.0 2.0 0.00 0.00 0.00 100 1016.9
20240520124552 63 74 0.0 0.0 0.00 0.00 0.00 100 1016.8
20240520123050 62 72 0.0 0.0 0.00 0.00 0.00 100 1017.1
20240520121549 61 72 0.0 0.0 0.00 0.00 0.00 100 1016.9
20240520120052 59 72 0.0 0.0 0.00 0.00 0.00 99 1016.9
20240520114543 59 72 0.0 0.0 0.00 0.01 0.00 99 1016.8
20240520113041 58 72 0.0 0.0 0.00 0.01 0.00 99 1016.7
20240520111537 58 72 0.0 0.0 0.00 0.01 0.00 98 1016.4
20240520110038 57 72 0.0 0.0 0.00 0.01 0.00 98 1016.2
20240520104542 57 72 0.0 0.0 0.00 0.01 0.00 98 1016.1
20240520103050 57 72 0.0 0.0 0.00 0.01 0.00 98 1015.9
20240520101535 57 72 0.0 0.0 0.00 0.01 0.00 98 1015.6
20240520100031 57 72 0.0 0.0 0.00 0.01 0.00 98 1015.5
20240520094530 57 72 0.0 0.0 0.00 0.01 0.00 98 1015.4
20240520093029 58 72 0.0 0.0 0.00 0.01 0.00 98 1015.4
20240520091531 58 72 0.0 0.0 0.00 0.01 0.00 98 1015.4
20240520090047 58 72 0.0 0.0 0.00 0.01 0.00 97 1015.5
20240520084526 58 72 0.0 0.0 0.00 0.01 0.00 98 1015.5
20240520083024 58 72 0.0 0.0 0.00 0.01 0.00 98 1015.5
20240520081523 58 72 0.0 0.0 0.00 0.01 0.00 98 1015.5
20240520080034 58 72 0.0 0.0 0.00 0.01 0.00 98 1015.4
20240520074523 58 72 0.0 0.0 0.00 0.01 0.00 97 1015.4
20240520073022 59 72 0.0 0.0 0.00 0.01 0.00 97 1015.3
20240520071520 59 72 0.0 0.0 0.00 0.01 0.00 97 1015.1
20240520070032 59 72 0.0 0.0 0.00 0.01 0.00 97 1015.4
20240520064517 59 72 0.0 0.0 0.00 0.01 0.00 97 1015.3
20240520063016 60 72 0.0 0.0 0.00 0.01 0.00 97 1015.5
20240520061514 60 72 0.0 0.0 0.00 0.01 0.00 97 1015.6
20240520060013 60 72 0.0 0.0 0.00 0.01 0.00 97 1015.5
20240520054512 60 72 0.0 0.0 0.00 0.01 0.00 97 1015.6
20240520053012 60 72 0.0 0.0 0.00 0.01 0.00 97 1015.7
20240520051509 60 72 0.0 0.0 0.00 0.01 0.00 97 1015.8
20240520050008 60 72 0.0 0.0 0.00 0.01 0.00 97 1015.9
20240520044507 60 72 0.0 0.0 0.00 0.01 0.00 97 1015.9
20240520043006 61 72 0.0 0.0 0.00 0.01 0.00 97 1015.9
20240520041507 61 72 0.0 0.0 0.00 0.01 0.00 97 1015.9